When you browse on this site, cookies collect data to enhance your experience and personalize the content and advertising you see.
Visit our Privacy Policy to learn more. By continuing to use the site, you agree to this use of cookies and data.
  • Em Portugal
  • Lista de países
  • Para 7 dias
  • Temperatura da água
  • Mapas de satélite
  • Mapa do tempo
  • Widgets de tempo
  • user-avatar
    Iniciar Sessão

    Previsão horária em Broda

    Hoje, 10 Dezembro, Segunda-feira

    Tempo Temperatura Precipitação Vento Pressão Humidade
    00:00 +4°C° 0.2 mm 4 m/s 732 mmHg 91%
    01:00 +3°C° 0 mm 3 m/s 732 mmHg 93%
    02:00 +3°C° 0.3 mm 4 m/s 732 mmHg 88%
    03:00 +2°C° 0.3 mm 5 m/s 733 mmHg 83%
    04:00 +2°C° 0.3 mm 6 m/s 733 mmHg 79%
    05:00 +2°C° 0 mm 6 m/s 734 mmHg 78%
    06:00 +2°C° 0 mm 6 m/s 735 mmHg 77%
    07:00 +2°C° 0 mm 5 m/s 735 mmHg 76%
    08:00 +2°C° 0 mm 5 m/s 736 mmHg 75%
    09:00 +2°C° 0 mm 5 m/s 736 mmHg 73%
    10:00 +2°C° 0 mm 5 m/s 737 mmHg 72%
    11:00 +2°C° 0.1 mm 6 m/s 737 mmHg 69%
    12:00 +2°C° 0.1 mm 6 m/s 737 mmHg 67%
    13:00 +3°C° 0.1 mm 6 m/s 737 mmHg 64%
    14:00 +2°C° 0 mm 5 m/s 738 mmHg 67%
    15:00 +2°C° 0 mm 5 m/s 738 mmHg 69%
    16:00 +1°C° 0 mm 4 m/s 738 mmHg 72%
    17:00 +1°C° 0 mm 4 m/s 738 mmHg 75%
    18:00 0°C° 0 mm 4 m/s 738 mmHg 77%
    19:00 0°C° 0 mm 4 m/s 738 mmHg 80%
    20:00 0°C° 0 mm 4 m/s 738 mmHg 81%
    21:00 0°C° 0 mm 4 m/s 738 mmHg 83%
    22:00 0°C° 0 mm 4 m/s 738 mmHg 84%
    23:00 0°C° 0.2 mm 4 m/s 739 mmHg 84%

    Amanhã, 11 Dezembro, Terça-feira

    Tempo Temperatura Precipitação Vento Pressão Humidade
    00:00 0°C° 0.2 mm 4 m/s 739 mmHg 84%
    01:00 +1°C° 0.2 mm 3 m/s 739 mmHg 85%
    02:00 +1°C° 0.3 mm 3 m/s 739 mmHg 86%
    03:00 +1°C° 0.3 mm 3 m/s 739 mmHg 87%
    04:00 +2°C° 0.3 mm 2 m/s 739 mmHg 89%
    05:00 +2°C° 0.1 mm 2 m/s 739 mmHg 90%
    06:00 +2°C° 0.1 mm 2 m/s 739 mmHg 91%
    07:00 +2°C° 0.1 mm 1 m/s 740 mmHg 92%
    08:00 +3°C° 0 mm 1 m/s 740 mmHg 91%
    09:00 +3°C° 0 mm 1 m/s 741 mmHg 91%
    10:00 +3°C° 0 mm 1 m/s 741 mmHg 90%
    11:00 +2°C° 0 mm 2 m/s 742 mmHg 89%
    12:00 +3°C° 0 mm 2 m/s 742 mmHg 87%
    13:00 +3°C° 0 mm 2 m/s 743 mmHg 86%
    14:00 +3°C° 0 mm 2 m/s 743 mmHg 87%
    15:00 +2°C° 0 mm 2 m/s 744 mmHg 87%
    16:00 +1°C° 0 mm 3 m/s 744 mmHg 88%
    17:00 +1°C° 0 mm 3 m/s 745 mmHg 88%
    18:00 +1°C° 0 mm 3 m/s 745 mmHg 88%
    19:00 0°C° 0 mm 3 m/s 746 mmHg 88%
    20:00 0°C° 0 mm 3 m/s 746 mmHg 89%
    21:00 +1°C° 0 mm 2 m/s 747 mmHg 90%
    22:00 -1°C° 0 mm 2 m/s 747 mmHg 92%
    23:00 -1°C° 0 mm 2 m/s 748 mmHg 92%

    Depois de amanhã, 12 Dezembro, Quarta-feira

    Tempo Temperatura Precipitação Vento Pressão Humidade
    00:00 -1°C° 0 mm 2 m/s 748 mmHg 93%
    01:00 -1°C° 0 mm 2 m/s 748 mmHg 93%
    02:00 +1°C° 0 mm 1 m/s 749 mmHg 93%
    03:00 +1°C° 0 mm 1 m/s 749 mmHg 93%
    04:00 +1°C° 0 mm 1 m/s 749 mmHg 93%
    05:00 +1°C° 0 mm 1 m/s 750 mmHg 93%
    06:00 +1°C° 0 mm 1 m/s 750 mmHg 92%
    07:00 +1°C° 0 mm 1 m/s 750 mmHg 92%
    08:00 +1°C° 0.1 mm 1 m/s 751 mmHg 91%
    09:00 +2°C° 0.1 mm 1 m/s 751 mmHg 89%
    10:00 +2°C° 0.1 mm 1 m/s 751 mmHg 87%
    11:00 +2°C° 0.2 mm 1 m/s 751 mmHg 86%
    12:00 +3°C° 0.2 mm 1 m/s 752 mmHg 86%
    13:00 +3°C° 0.2 mm 1 m/s 752 mmHg 85%
    14:00 +2°C° 0 mm 1 m/s 752 mmHg 88%
    15:00 +2°C° 0 mm 1 m/s 752 mmHg 90%
    16:00 +1°C° 0 mm 1 m/s 752 mmHg 93%
    17:00 +1°C° 0 mm 1 m/s 752 mmHg 93%
    18:00 +1°C° 0 mm 1 m/s 752 mmHg 94%
    19:00 +1°C° 0 mm 1 m/s 752 mmHg 94%
    20:00 +1°C° 0 mm 1 m/s 752 mmHg 94%
    21:00 +1°C° 0 mm 1 m/s 753 mmHg 94%
    22:00 +1°C° 0 mm 1 m/s 753 mmHg 94%
    23:00 +1°C° 0 mm 1 m/s 753 mmHg 94%

    13 Dezembro, Quinta-feira

    Tempo Temperatura Precipitação Vento Pressão Humidade
    00:00 +1°C° 0 mm 1 m/s 753 mmHg 94%
    01:00 0°C° 0 mm 1 m/s 753 mmHg 94%
    02:00 -2°C° 0 mm 2 m/s 753 mmHg 94%
    03:00 -2°C° 0 mm 2 m/s 753 mmHg 94%
    04:00 -2°C° 0 mm 2 m/s 753 mmHg 94%
    05:00 -2°C° 0 mm 2 m/s 753 mmHg 93%
    06:00 -1°C° 0 mm 2 m/s 753 mmHg 92%
    07:00 -1°C° 0 mm 2 m/s 753 mmHg 91%
    08:00 -1°C° 0 mm 2 m/s 753 mmHg 90%
    09:00 -1°C° 0 mm 2 m/s 753 mmHg 89%
    10:00 -1°C° 0 mm 2 m/s 753 mmHg 87%
    11:00 -1°C° 0 mm 2 m/s 753 mmHg 85%
    12:00 +1°C° 0 mm 2 m/s 752 mmHg 83%
    13:00 +1°C° 0 mm 2 m/s 752 mmHg 81%
    14:00 +1°C° 0 mm 1 m/s 752 mmHg 83%
    15:00 +1°C° 0 mm 1 m/s 752 mmHg 85%
    16:00 +1°C° 0 mm 1 m/s 752 mmHg 87%
    17:00 0°C° 0 mm 1 m/s 752 mmHg 88%
    18:00 0°C° 0 mm 1 m/s 752 mmHg 89%
    19:00 0°C° 0 mm 1 m/s 752 mmHg 89%
    20:00 0°C° 0 mm 1 m/s 753 mmHg 89%
    21:00 -2°C° 0 mm 2 m/s 753 mmHg 88%
    22:00 -2°C° 0 mm 2 m/s 753 mmHg 88%
    23:00 0°C° 0 mm 1 m/s 753 mmHg 88%

    14 Dezembro, Sexta-feira

    Tempo Temperatura Precipitação Vento Pressão Humidade
    00:00 0°C° 0 mm 1 m/s 753 mmHg 87%
    01:00 0°C° 0 mm 1 m/s 753 mmHg 87%
    02:00 -1°C° 0 mm 1 m/s 754 mmHg 87%
    03:00 -1°C° 0 mm 1 m/s 754 mmHg 88%
    04:00 -1°C° 0 mm 1 m/s 754 mmHg 88%
    05:00 -1°C° 0 mm 1 m/s 754 mmHg 89%
    06:00 -1°C° 0 mm 1 m/s 754 mmHg 89%
    07:00 -1°C° 0 mm 1 m/s 755 mmHg 89%
    08:00 -1°C° 0 mm 1 m/s 755 mmHg 88%
    09:00 -2°C° 0 mm 2 m/s 756 mmHg 86%
    10:00 -2°C° 0 mm 2 m/s 756 mmHg 85%
    11:00 -2°C° 0 mm 2 m/s 756 mmHg 84%
    12:00 +1°C° 0 mm 1 m/s 756 mmHg 83%
    13:00 +1°C° 0 mm 1 m/s 757 mmHg 82%
    14:00 +1°C° 0 mm 1 m/s 757 mmHg 84%
    15:00 0°C° 0 mm 1 m/s 757 mmHg 87%
    16:00 0°C° 0 mm 1 m/s 757 mmHg 89%
    17:00 0°C° 0 mm 1 m/s 758 mmHg 90%
    18:00 -2°C° 0 mm 2 m/s 758 mmHg 91%
    19:00 -2°C° 0 mm 2 m/s 758 mmHg 92%
    20:00 -2°C° 0 mm 2 m/s 759 mmHg 92%
    21:00 -2°C° 0 mm 2 m/s 759 mmHg 92%
    22:00 -2°C° 0 mm 2 m/s 759 mmHg 92%
    23:00 -2°C° 0 mm 2 m/s 759 mmHg 92%

    15 Dezembro, Sábado

    Tempo Temperatura Precipitação Vento Pressão Humidade
    00:00 -2°C° 0 mm 2 m/s 760 mmHg 92%
    01:00 -2°C° 0 mm 2 m/s 760 mmHg 92%
    02:00 -2°C° 0 mm 2 m/s 760 mmHg 92%
    03:00 -2°C° 0 mm 2 m/s 760 mmHg 92%
    04:00 -2°C° 0 mm 2 m/s 760 mmHg 92%
    05:00 -2°C° 0 mm 2 m/s 760 mmHg 92%
    06:00 -2°C° 0 mm 2 m/s 761 mmHg 92%
    07:00 -2°C° 0 mm 2 m/s 761 mmHg 92%
    08:00 -2°C° 0 mm 2 m/s 761 mmHg 90%
    09:00 -2°C° 0 mm 2 m/s 761 mmHg 89%
    10:00 -2°C° 0 mm 2 m/s 762 mmHg 87%
    11:00 -2°C° 0 mm 2 m/s 762 mmHg 85%
    12:00 -1°C° 0 mm 2 m/s 762 mmHg 82%
    13:00 -1°C° 0 mm 2 m/s 762 mmHg 79%
    14:00 -2°C° 0 mm 2 m/s 762 mmHg 82%
    15:00 -2°C° 0 mm 2 m/s 762 mmHg 84%
    16:00 -3°C° 0 mm 2 m/s 762 mmHg 87%
    17:00 -3°C° 0 mm 2 m/s 762 mmHg 87%
    18:00 -3°C° 0 mm 2 m/s 762 mmHg 87%
    19:00 -4°C° 0 mm 3 m/s 763 mmHg 88%
    20:00 -4°C° 0 mm 3 m/s 763 mmHg 87%
    21:00 -4°C° 0 mm 3 m/s 762 mmHg 86%
    22:00 -4°C° 0 mm 3 m/s 762 mmHg 86%
    23:00 -4°C° 0 mm 3 m/s 762 mmHg 85%
    Mostrar mais